contact:dominique.lefevre@mio.osupytheas.fr, maurice.libes@osupytheas.fr, didier.mallarino@osupytheas.fr
Project:EMSO http://www.emso-fr.org/EMSO-France
Depth: 2436.0 m
Title:EMSO Ligure Ouest : Data MII capteur AQUADOPP
Date,Latitude,Longitude,X_East,Y_North,Z_Up,Amplitude_X,Amplitude_Y,Amplitude_Z,Batterie,SoundSpeed,Heading,Pitch,Roll,Pressure,TIS,Speed,Direction
, degrees North, degrees East, m.s-1, m.s-1,m.s-1, 1, 1, 1, Volt, m.s-1, degree, degree, degree, dbar, degree_C, m.s-1, degree
2019-11-16T00:04:02,42.805,6.029,0.001,-0.014,-0.065,100.0,108.0,98.0,13.4,1505.3,326.2,-0.8,1.8,2470.22,13.31,0.014,175.9
2019-11-16T00:07:02,42.805,6.029,0.037,0.03,-0.02,100.0,107.0,98.0,13.4,1505.3,324.9,-0.7,1.8,2470.244,13.31,0.047,51.0
2019-11-16T00:10:02,42.805,6.029,0.028,0.013,-0.039,100.0,108.0,98.0,13.3,1505.3,326.0,-0.7,1.9,2470.262,13.32,0.03,65.1
2019-11-16T00:13:03,42.805,6.029,0.034,0.004,-0.033,100.0,108.0,100.0,13.4,1505.3,325.9,-0.7,1.8,2470.207,13.32,0.034,83.3
2019-11-16T00:16:03,42.805,6.029,0.022,0.023,-0.01,100.0,107.0,98.0,13.4,1505.3,324.9,-0.7,1.9,2470.212,13.32,0.031,43.7
2019-11-16T00:19:03,42.805,6.029,0.055,0.031,0.007,100.0,108.0,99.0,13.4,1505.3,326.8,-0.7,1.8,2470.244,13.32,0.063,60.6
2019-11-16T00:22:02,42.805,6.029,0.001,0.036,-0.03,100.0,108.0,98.0,13.4,1505.3,324.5,-0.7,1.9,2470.219,13.33,0.036,1.6
2019-11-16T00:25:03,42.805,6.029,0.037,0.006,-0.055,100.0,108.0,99.0,13.4,1505.3,325.1,-0.7,1.8,2470.219,13.33,0.037,80.8
2019-11-16T00:28:02,42.805,6.029,0.012,0.021,-0.005,101.0,107.0,98.0,13.3,1505.3,324.1,-0.7,1.8,2470.235,13.33,0.024,29.7
2019-11-16T00:31:03,42.805,6.029,0.005,0.042,-0.061,101.0,109.0,98.0,13.4,1505.3,325.9,-0.7,1.9,2470.244,13.33,0.042,6.8
2019-11-16T00:34:03,42.805,6.029,0.026,0.034,-0.021,101.0,107.0,98.0,13.4,1505.3,328.4,-0.7,1.8,2470.201,13.33,0.042,37.4
2019-11-16T00:37:02,42.805,6.029,0.048,0.025,-0.008,101.0,107.0,99.0,13.4,1505.3,325.3,-0.7,1.9,2470.213,13.33,0.054,62.5
2019-11-16T00:40:02,42.805,6.029,0.035,0.02,-0.024,100.0,106.0,99.0,13.4,1505.3,324.7,-0.7,1.8,2470.216,13.33,0.04,60.3
2019-11-16T00:43:03,42.805,6.029,0.034,0.006,-0.035,100.0,107.0,100.0,13.3,1505.3,327.5,-0.7,1.8,2470.183,13.33,0.034,80.0
2019-11-16T00:46:02,42.805,6.029,0.016,0.03,-0.041,101.0,107.0,99.0,13.3,1505.3,327.6,-0.7,1.8,2470.196,13.33,0.034,28.1
2019-11-16T00:49:02,42.805,6.029,0.015,0.03,-0.037,100.0,107.0,99.0,13.4,1505.3,323.5,-0.7,1.8,2470.208,13.33,0.033,26.6
2019-11-16T00:52:02,42.805,6.029,0.038,0.017,-0.029,101.0,107.0,98.0,13.4,1505.3,323.8,-0.7,1.8,2470.166,13.33,0.041,65.9
2019-11-16T00:55:03,42.805,6.029,0.023,0.014,-0.045,100.0,106.0,98.0,13.3,1505.3,325.5,-0.7,1.8,2470.172,13.33,0.026,58.7
2019-11-16T00:58:03,42.805,6.029,0.042,0.032,-0.026,99.0,107.0,98.0,13.4,1505.3,324.7,-0.7,1.8,2470.168,13.33,0.052,52.7
2019-11-16T01:04:02,42.805,6.029,0.057,-0.002,0.003,101.0,107.0,98.0,13.4,1505.3,326.1,-0.8,1.8,2470.233,13.31,0.057,92.0
2019-11-16T01:07:03,42.805,6.029,0.014,0.017,-0.038,99.0,107.0,98.0,13.4,1505.3,327.8,-0.8,1.8,2470.199,13.31,0.022,39.5
2019-11-16T01:10:03,42.805,6.029,0.033,0.021,-0.02,100.0,106.0,98.0,13.4,1505.3,327.7,-0.7,1.8,2470.212,13.32,0.039,57.5
2019-11-16T01:13:03,42.805,6.029,0.05,0.012,-0.026,100.0,106.0,98.0,13.4,1505.3,325.0,-0.7,1.8,2470.205,13.32,0.051,76.5
2019-11-16T01:16:02,42.805,6.029,0.047,0.002,-0.033,100.0,106.0,99.0,13.4,1505.3,324.0,-0.7,1.8,2470.194,13.32,0.047,87.6
2019-11-16T01:19:02,42.805,6.029,0.039,0.019,-0.022,99.0,108.0,97.0,13.4,1505.3,325.6,-0.7,1.9,2470.216,13.33,0.043,64.0
2019-11-16T01:22:02,42.805,6.029,0.011,0.022,-0.011,99.0,107.0,99.0,13.4,1505.3,326.7,-0.7,1.8,2470.183,13.33,0.024,26.6
2019-11-16T01:25:03,42.805,6.029,0.033,0.008,-0.04,100.0,107.0,98.0,13.4,1505.3,328.1,-0.7,1.8,2470.155,13.33,0.033,76.4
2019-11-16T01:28:03,42.805,6.029,0.001,0.01,-0.03,101.0,107.0,99.0,13.3,1505.3,327.4,-0.7,1.8,2470.21,13.33,0.01,5.7
2019-11-16T01:31:03,42.805,6.029,-0.001,0.023,-0.04,100.0,106.0,99.0,13.3,1505.3,325.4,-0.7,1.8,2470.186,13.33,0.023,357.5
2019-11-16T01:34:02,42.805,6.029,0.029,0.015,-0.008,101.0,106.0,97.0,13.3,1505.3,323.6,-0.7,1.8,2470.201,13.33,0.032,62.6
2019-11-16T01:37:02,42.805,6.029,0.002,0.027,-0.012,100.0,107.0,99.0,13.4,1505.3,324.9,-0.7,1.8,2470.194,13.33,0.027,4.2
2019-11-16T01:40:03,42.805,6.029,0.03,0.011,-0.054,100.0,107.0,99.0,13.4,1505.3,325.8,-0.7,1.8,2470.163,13.33,0.031,69.9
2019-11-16T01:43:03,42.805,6.029,0.029,0.009,-0.06,100.0,104.0,99.0,13.4,1505.3,325.5,-0.7,1.8,2470.17,13.33,0.03,72.8
2019-11-16T01:49:02,42.805,6.029,0.037,0.015,-0.009,100.0,105.0,97.0,13.4,1505.3,325.9,-0.8,1.8,2470.242,13.31,0.039,67.9
2019-11-16T01:52:02,42.805,6.029,0.016,0.018,-0.055,100.0,105.0,98.0,13.4,1505.3,326.9,-0.7,1.9,2470.2,13.31,0.024,41.6
2019-11-16T01:55:03,42.805,6.029,0.005,0.017,-0.045,101.0,105.0,98.0,13.4,1505.3,326.9,-0.7,1.8,2470.191,13.32,0.017,16.4
2019-11-16T01:58:02,42.805,6.029,0.015,0.008,-0.021,99.0,107.0,98.0,13.4,1505.3,324.4,-0.7,1.8,2470.167,13.32,0.017,61.9
2019-11-16T02:04:02,42.805,6.029,0.039,-0.011,-0.045,101.0,107.0,98.0,13.4,1505.3,328.0,-0.7,1.8,2470.199,13.31,0.04,105.7
2019-11-16T02:07:02,42.805,6.029,0.031,-0.002,-0.051,100.0,107.0,99.0,13.3,1505.3,326.8,-0.7,1.8,2470.201,13.31,0.031,93.7
2019-11-16T02:10:02,42.805,6.029,0.044,0.007,-0.008,100.0,106.0,98.0,13.4,1505.3,324.8,-0.8,1.8,2470.158,13.32,0.044,81.0
2019-11-16T02:13:03,42.805,6.029,-0.012,0.015,-0.045,101.0,108.0,98.0,13.3,1505.3,328.6,-0.7,1.8,2470.169,13.32,0.019,321.3
2019-11-16T02:16:03,42.805,6.029,0.012,-0.004,-0.045,100.0,105.0,98.0,13.4,1505.3,324.7,-0.7,1.8,2470.197,13.32,0.012,108.4
2019-11-16T02:19:03,42.805,6.029,0.001,0.016,-0.063,100.0,105.0,99.0,13.4,1505.3,324.7,-0.8,1.8,2470.188,13.33,0.016,3.6
2019-11-16T02:22:02,42.805,6.029,0.024,0.009,-0.032,101.0,106.0,97.0,13.4,1505.3,327.3,-0.7,1.8,2470.199,13.33,0.025,69.4
2019-11-16T02:25:03,42.805,6.029,0.02,0.015,-0.023,101.0,105.0,99.0,13.4,1505.3,327.7,-0.7,1.8,2470.188,13.33,0.025,53.1
2019-11-16T02:28:03,42.805,6.029,0.045,0.007,-0.024,103.0,105.0,98.0,13.4,1505.3,325.3,-0.7,1.8,2470.145,13.33,0.045,81.2
2019-11-16T02:31:03,42.805,6.029,-0.013,-0.001,-0.09,100.0,106.0,98.0,13.4,1505.3,324.3,-0.7,1.8,2470.131,13.33,0.013,265.6
2019-11-16T02:34:03,42.805,6.029,-0.006,0.003,-0.08,100.0,106.0,98.0,13.3,1505.3,328.3,-0.7,1.9,2470.149,13.33,0.006,296.6
2019-11-16T02:37:02,42.805,6.029,0.0,0.008,-0.023,98.0,107.0,98.0,13.4,1505.3,324.7,-0.7,1.8,2470.158,13.33,0.008,0.0
2019-11-16T02:40:02,42.805,6.029,-0.004,0.0,-0.063,101.0,106.0,99.0,13.4,1505.3,327.7,-0.7,1.8,2470.151,13.33,0.004,270.0
2019-11-16T02:43:03,42.805,6.029,0.013,-0.004,-0.061,101.0,107.0,98.0,13.4,1505.3,328.2,-0.7,1.9,2470.168,13.33,0.013,107.1
2019-11-16T02:46:03,42.805,6.029,-0.034,0.017,-0.031,99.0,107.0,98.0,13.4,1505.3,328.4,-0.7,1.8,2470.168,13.33,0.038,296.6
2019-11-16T02:49:03,42.805,6.029,0.008,0.017,-0.066,100.0,108.0,98.0,13.4,1505.3,327.2,-0.7,1.9,2470.179,13.33,0.018,25.2
2019-11-16T02:52:02,42.805,6.029,0.026,0.015,-0.034,99.0,106.0,99.0,13.4,1505.3,325.2,-0.7,1.9,2470.151,13.33,0.03,60.0
2019-11-16T02:55:03,42.805,6.029,0.044,-0.008,-0.038,100.0,105.0,99.0,13.3,1505.3,324.5,-0.7,1.9,2470.174,13.33,0.044,100.3
2019-11-16T02:58:03,42.805,6.029,0.026,0.017,-0.038,99.0,106.0,98.0,13.4,1505.3,324.5,-0.7,1.8,2470.186,13.33,0.031,56.8
2019-11-16T03:04:02,42.805,6.029,0.034,0.002,-0.059,100.0,107.0,99.0,13.4,1505.3,325.0,-0.8,1.8,2470.179,13.31,0.034,86.6
2019-11-16T03:07:02,42.805,6.029,-0.028,0.002,-0.057,101.0,107.0,98.0,13.4,1505.3,326.6,-0.7,1.8,2470.199,13.32,0.028,274.1
2019-11-16T03:10:02,42.805,6.029,-0.006,-0.001,-0.055,101.0,106.0,98.0,13.4,1505.3,326.5,-0.7,1.8,2470.139,13.32,0.006,260.5
2019-11-16T03:13:03,42.805,6.029,-0.016,-0.003,-0.066,100.0,106.0,98.0,13.3,1505.3,327.2,-0.7,1.8,2470.142,13.33,0.016,259.4
2019-11-16T03:16:03,42.805,6.029,0.02,0.022,-0.048,99.0,107.0,99.0,13.4,1505.3,327.3,-0.7,1.8,2470.169,13.33,0.029,42.3
2019-11-16T03:19:03,42.805,6.029,-0.043,0.013,-0.056,101.0,106.0,99.0,13.4,1505.3,324.1,-0.7,1.8,2470.218,13.33,0.044,286.8
2019-11-16T03:22:02,42.805,6.029,-0.011,0.015,-0.049,102.0,106.0,99.0,13.4,1505.3,324.8,-0.7,1.8,2470.154,13.33,0.018,323.7
2019-11-16T03:25:03,42.805,6.029,0.017,-0.001,-0.029,99.0,106.0,99.0,13.4,1505.3,324.0,-0.7,1.8,2470.161,13.33,0.017,93.4
2019-11-16T03:28:03,42.805,6.029,0.007,0.014,-0.037,100.0,107.0,99.0,13.4,1505.3,327.7,-0.7,1.8,2470.187,13.33,0.015,26.6
2019-11-16T03:31:03,42.805,6.029,-0.017,0.013,-0.061,100.0,107.0,97.0,13.3,1505.3,327.3,-0.7,1.8,2470.163,13.33,0.021,307.4
2019-11-16T03:34:03,42.805,6.029,-0.008,0.014,-0.063,100.0,107.0,99.0,13.4,1505.3,327.2,-0.7,1.8,2470.157,13.33,0.016,330.3
2019-11-16T03:37:02,42.805,6.029,-0.022,0.011,-0.08,100.0,106.0,99.0,13.4,1505.3,326.3,-0.7,1.9,2470.131,13.33,0.024,296.6
2019-11-16T03:40:02,42.805,6.029,-0.009,0.002,-0.063,102.0,107.0,97.0,13.4,1505.3,324.7,-0.7,1.8,2470.219,13.33,0.009,282.5
2019-11-16T03:43:03,42.805,6.029,-0.001,-0.01,-0.045,102.0,104.0,98.0,13.4,1505.3,323.9,-0.7,1.8,2470.131,13.33,0.01,185.7
2019-11-16T03:46:03,42.805,6.029,0.013,0.011,-0.045,102.0,106.0,98.0,13.4,1505.3,327.3,-0.7,1.8,2470.126,13.33,0.017,49.8
2019-11-16T03:49:03,42.805,6.029,0.017,0.003,-0.034,100.0,105.0,99.0,13.3,1505.3,325.4,-0.7,1.8,2470.144,13.33,0.017,80.0
2019-11-16T03:52:02,42.805,6.029,0.026,0.011,-0.042,99.0,106.0,98.0,13.4,1505.3,327.5,-0.7,1.8,2470.166,13.33,0.028,67.1
2019-11-16T03:55:02,42.805,6.029,0.033,0.009,-0.011,101.0,106.0,98.0,13.3,1505.3,325.0,-0.7,1.8,2470.14,13.33,0.034,74.7
2019-11-16T03:58:03,42.805,6.029,0.033,0.001,-0.029,100.0,107.0,98.0,13.3,1505.3,327.8,-0.7,1.8,2470.116,13.33,0.033,88.3
2019-11-16T04:04:02,42.805,6.029,-0.002,0.004,-0.02,100.0,106.0,98.0,13.4,1505.3,323.5,-0.7,1.8,2470.181,13.31,0.004,333.4
2019-11-16T04:07:02,42.805,6.029,0.0,0.009,-0.069,101.0,106.0,98.0,13.4,1505.3,327.1,-0.7,1.8,2470.173,13.32,0.009,0.0
2019-11-16T04:10:03,42.805,6.029,-0.005,0.016,0.003,100.0,106.0,98.0,13.4,1505.3,328.1,-0.7,1.8,2470.188,13.32,0.016,342.6
2019-11-16T04:13:02,42.805,6.029,0.028,0.005,-0.016,100.0,106.0,99.0,13.4,1505.3,325.5,-0.7,1.8,2470.159,13.33,0.028,79.9
2019-11-16T04:16:03,42.805,6.029,-0.01,0.001,-0.025,100.0,107.0,98.0,13.3,1505.3,326.0,-0.7,1.8,2470.152,13.33,0.01,275.7
2019-11-16T04:19:03,42.805,6.029,0.003,0.017,0.0,100.0,106.0,99.0,13.4,1505.3,327.6,-0.7,1.9,2470.176,13.33,0.017,10.0
2019-11-16T04:22:02,42.805,6.029,0.004,-0.01,-0.076,102.0,105.0,98.0,13.4,1505.3,325.2,-0.7,1.8,2470.113,13.33,0.01,158.2
2019-11-16T04:25:02,42.805,6.029,0.004,0.001,-0.034,100.0,107.0,98.0,13.4,1505.3,325.5,-0.7,1.8,2470.167,13.33,0.004,76.0
2019-11-16T04:28:03,42.805,6.029,0.021,0.015,-0.001,99.0,106.0,99.0,13.4,1505.3,324.9,-0.7,1.9,2470.151,13.33,0.025,54.5
2019-11-16T04:31:03,42.805,6.029,-0.007,0.002,-0.075,102.0,106.0,98.0,13.3,1505.3,324.5,-0.7,1.8,2470.145,13.33,0.007,285.9
2019-11-16T04:34:03,42.805,6.029,0.007,0.02,-0.028,100.0,106.0,99.0,13.3,1505.3,324.9,-0.7,1.8,2470.207,13.33,0.021,19.3
2019-11-16T04:37:02,42.805,6.029,0.003,0.001,-0.081,99.0,108.0,99.0,13.4,1505.3,322.9,-0.7,1.8,2470.19,13.33,0.003,71.6
2019-11-16T04:40:03,42.805,6.029,-0.01,0.005,-0.055,101.0,107.0,99.0,13.4,1505.3,326.0,-0.7,1.8,2470.161,13.33,0.011,296.6
2019-11-16T04:43:03,42.805,6.029,0.001,0.001,-0.029,98.0,106.0,99.0,13.3,1505.3,323.2,-0.7,1.8,2470.173,13.33,0.001,45.0
2019-11-16T04:46:03,42.805,6.029,-0.022,0.002,-0.037,105.0,106.0,98.0,13.3,1505.3,324.5,-0.7,1.8,2470.16,13.33,0.022,275.2
2019-11-16T04:49:03,42.805,6.029,-0.02,0.003,-0.07,99.0,105.0,98.0,13.4,1505.3,325.4,-0.7,1.8,2470.14,13.33,0.02,278.5
2019-11-16T04:52:02,42.805,6.029,-0.008,0.008,-0.05,102.0,106.0,99.0,13.3,1505.3,327.1,-0.7,1.8,2470.188,13.33,0.011,315.0
2019-11-16T04:55:03,42.805,6.029,0.01,0.0,-0.053,100.0,104.0,99.0,13.4,1505.3,324.3,-0.7,1.8,2470.161,13.33,0.01,90.0
2019-11-16T04:58:03,42.805,6.029,-0.011,0.016,-0.011,100.0,106.0,98.0,13.3,1505.3,328.4,-0.7,1.8,2470.18,13.33,0.019,325.5
2019-11-16T05:04:02,42.805,6.029,0.036,0.008,-0.027,99.0,106.0,98.0,13.3,1505.3,323.3,-0.7,1.9,2470.228,13.31,0.036,77.5
2019-11-16T05:07:02,42.805,6.029,0.007,0.013,-0.039,100.0,106.0,98.0,13.3,1505.3,324.4,-0.7,1.8,2470.18,13.32,0.014,28.3
2019-11-16T05:10:03,42.805,6.029,0.025,0.012,-0.031,99.0,107.0,98.0,13.4,1505.3,323.7,-0.7,1.9,2470.149,13.33,0.027,64.4
2019-11-16T05:13:03,42.805,6.029,0.014,0.006,-0.041,99.0,107.0,99.0,13.3,1505.3,324.2,-0.7,1.8,2470.203,13.33,0.015,66.8
2019-11-16T05:16:03,42.805,6.029,0.049,0.016,0.026,100.0,105.0,98.0,13.4,1505.3,325.2,-0.7,1.8,2470.186,13.33,0.051,71.9
2019-11-16T05:19:02,42.805,6.029,-0.015,-0.008,-0.03,99.0,107.0,99.0,13.3,1505.3,325.5,-0.7,1.8,2470.222,13.33,0.017,241.9
2019-11-16T05:22:02,42.805,6.029,0.004,-0.006,-0.025,101.0,107.0,99.0,13.3,1505.4,323.5,-0.7,1.9,2470.168,13.34,0.007,146.3
2019-11-16T05:25:03,42.805,6.029,0.003,0.03,-0.035,100.0,107.0,98.0,13.4,1505.4,324.5,-0.7,1.8,2470.178,13.34,0.03,5.7
2019-11-16T05:28:03,42.805,6.029,-0.027,0.008,-0.066,101.0,108.0,99.0,13.4,1505.4,323.5,-0.7,1.8,2470.206,13.34,0.028,286.5
2019-11-16T05:31:03,42.805,6.029,-0.002,0.042,-0.034,99.0,106.0,98.0,13.4,1505.4,326.3,-0.7,1.8,2470.166,13.34,0.042,357.3
2019-11-16T05:34:03,42.805,6.029,-0.002,0.014,-0.054,100.0,106.0,100.0,13.4,1505.4,328.3,-0.7,1.8,2470.177,13.34,0.014,351.9
2019-11-16T05:37:02,42.805,6.029,-0.01,0.005,-0.052,101.0,106.0,99.0,13.4,1505.4,323.4,-0.7,1.8,2470.174,13.34,0.011,296.6
2019-11-16T05:40:03,42.805,6.029,0.007,-0.011,-0.044,100.0,107.0,98.0,13.4,1505.4,328.3,-0.7,1.8,2470.2,13.34,0.013,147.5
2019-11-16T05:43:03,42.805,6.029,-0.011,0.008,-0.031,101.0,106.0,98.0,13.4,1505.4,328.3,-0.8,1.8,2470.21,13.34,0.013,306.0
2019-11-16T05:46:03,42.805,6.029,0.016,0.005,-0.025,101.0,105.0,99.0,13.4,1505.4,327.2,-0.7,1.8,2470.177,13.34,0.016,72.6
2019-11-16T05:49:02,42.805,6.029,0.001,0.014,-0.047,100.0,106.0,98.0,13.4,1505.4,325.8,-0.7,1.9,2470.22,13.34,0.014,4.1
2019-11-16T05:52:02,42.805,6.029,0.016,0.007,-0.042,99.0,105.0,99.0,13.4,1505.4,326.8,-0.7,1.9,2470.201,13.34,0.017,66.4
2019-11-16T05:55:03,42.805,6.029,0.018,0.016,-0.044,100.0,105.0,98.0,13.3,1505.4,328.4,-0.7,1.8,2470.245,13.34,0.024,48.4
2019-11-16T05:58:03,42.805,6.029,0.001,0.002,-0.004,100.0,106.0,103.0,13.4,1505.4,325.9,-0.7,1.8,2470.224,13.34,0.002,26.6
2019-11-16T06:04:02,42.805,6.029,0.01,0.016,-0.032,99.0,105.0,97.0,13.4,1505.3,324.6,-0.7,1.8,2470.253,13.33,0.018,32.0
2019-11-16T06:07:02,42.805,6.029,0.026,0.008,-0.047,99.0,106.0,97.0,13.3,1505.3,328.3,-0.7,1.9,2470.272,13.33,0.027,72.9
2019-11-16T06:10:03,42.805,6.029,-0.007,0.014,-0.012,99.0,114.0,99.0,13.4,1505.4,322.9,-0.7,1.9,2470.252,13.34,0.015,333.4
2019-11-16T06:13:03,42.805,6.029,0.0,0.002,-0.052,100.0,107.0,98.0,13.4,1505.4,326.6,-0.7,1.9,2470.253,13.34,0.002,0.0
2019-11-16T06:16:03,42.805,6.029,0.017,0.01,-0.037,99.0,106.0,98.0,13.4,1505.4,326.1,-0.7,1.9,2470.264,13.34,0.019,59.5
2019-11-16T06:19:03,42.805,6.029,0.024,-0.013,-0.031,98.0,105.0,97.0,13.4,1505.4,326.5,-0.8,1.9,2470.217,13.34,0.027,118.4
2019-11-16T06:22:02,42.805,6.029,0.019,0.004,-0.056,100.0,105.0,98.0,13.3,1505.4,327.7,-0.7,1.9,2470.245,13.34,0.019,78.1
2019-11-16T06:25:02,42.805,6.029,0.029,0.014,-0.033,101.0,105.0,97.0,13.4,1505.4,322.9,-0.8,1.8,2470.226,13.35,0.032,64.2
2019-11-16T06:28:03,42.805,6.029,0.028,-0.005,0.013,101.0,107.0,98.0,13.3,1505.4,326.4,-0.7,1.9,2470.233,13.35,0.028,100.1
2019-11-16T06:31:03,42.805,6.029,0.039,0.023,0.0,101.0,105.0,99.0,13.4,1505.4,324.4,-0.7,1.8,2470.224,13.35,0.045,59.5
2019-11-16T06:34:03,42.805,6.029,0.016,0.003,0.026,100.0,106.0,97.0,13.3,1505.4,328.7,-0.7,1.9,2470.243,13.35,0.016,79.4
2019-11-16T06:37:02,42.805,6.029,0.001,0.028,-0.011,102.0,107.0,97.0,13.4,1505.4,325.1,-0.7,1.8,2470.257,13.34,0.028,2.0
2019-11-16T06:40:03,42.805,6.029,0.037,0.016,-0.002,99.0,107.0,97.0,13.4,1505.4,324.7,-0.7,1.8,2470.304,13.34,0.04,66.6
2019-11-16T06:43:03,42.805,6.029,0.008,0.027,-0.022,99.0,105.0,98.0,13.4,1505.4,324.7,-0.7,1.8,2470.258,13.34,0.028,16.5
2019-11-16T06:46:03,42.805,6.029,-0.001,-0.011,-0.024,100.0,106.0,98.0,13.4,1505.4,328.5,-0.7,1.8,2470.27,13.34,0.011,185.2
2019-11-16T06:49:03,42.805,6.029,0.02,0.001,-0.003,101.0,105.0,98.0,13.4,1505.4,327.3,-0.7,1.8,2470.251,13.34,0.02,87.1
2019-11-16T06:52:02,42.805,6.029,0.005,0.016,-0.015,99.0,105.0,98.0,13.4,1505.4,328.6,-0.7,1.8,2470.257,13.34,0.016,17.4
2019-11-16T06:55:02,42.805,6.029,-0.001,0.005,-0.039,101.0,105.0,98.0,13.4,1505.4,325.5,-0.7,1.8,2470.267,13.34,0.005,348.7
2019-11-16T06:58:03,42.805,6.029,-0.02,0.001,0.006,101.0,106.0,98.0,13.4,1505.4,328.1,-0.7,1.8,2470.268,13.34,0.02,272.9
2019-11-16T07:04:02,42.805,6.029,0.019,0.006,-0.016,100.0,103.0,98.0,13.4,1505.3,327.4,-0.8,1.8,2470.303,13.32,0.019,72.5
2019-11-16T07:07:02,42.805,6.029,0.007,0.009,-0.016,100.0,103.0,98.0,13.3,1505.3,324.8,-0.8,1.8,2470.299,13.33,0.011,37.9
2019-11-16T07:10:03,42.805,6.029,0.0,-0.003,-0.052,100.0,103.0,97.0,13.4,1505.3,324.5,-0.7,1.8,2470.316,13.33,0.003,180.0
2019-11-16T07:13:03,42.805,6.029,0.007,0.02,-0.001,101.0,103.0,97.0,13.4,1505.4,324.5,-0.7,1.8,2470.314,13.34,0.021,19.3
2019-11-16T07:16:03,42.805,6.029,0.083,0.04,0.056,100.0,103.0,98.0,13.3,1505.4,328.3,-0.7,1.8,2470.305,13.34,0.092,64.3
2019-11-16T07:19:03,42.805,6.029,0.038,0.012,0.008,101.0,103.0,98.0,13.4,1505.4,327.7,-0.7,1.8,2470.338,13.34,0.039,72.5
2019-11-16T07:22:03,42.805,6.029,0.047,0.017,0.018,102.0,103.0,98.0,13.4,1505.4,327.9,-0.7,1.8,2470.34,13.34,0.049,70.1
2019-11-16T07:25:03,42.805,6.029,0.015,-0.001,-0.008,98.0,105.0,99.0,13.4,1505.4,324.9,-0.8,1.9,2470.381,13.34,0.015,93.8
2019-11-16T07:28:03,42.805,6.029,0.027,0.02,-0.017,99.0,103.0,99.0,13.3,1505.4,324.7,-0.7,1.8,2470.313,13.34,0.033,53.5
2019-11-16T07:31:03,42.805,6.029,0.01,0.027,0.017,101.0,103.0,97.0,13.3,1505.4,325.1,-0.7,1.8,2470.328,13.34,0.028,20.3
2019-11-16T07:34:03,42.805,6.029,-0.019,0.025,-0.01,99.0,104.0,99.0,13.3,1505.4,324.4,-0.7,1.8,2470.328,13.34,0.031,322.8
2019-11-16T07:37:02,42.805,6.029,-0.026,0.025,-0.018,101.0,102.0,98.0,13.4,1505.4,327.4,-0.7,1.8,2470.305,13.34,0.036,313.9
2019-11-16T07:40:03,42.805,6.029,0.002,-0.001,-0.029,101.0,105.0,97.0,13.4,1505.4,324.2,-0.7,1.8,2470.338,13.34,0.002,116.6
2019-11-16T07:43:03,42.805,6.029,0.006,0.024,0.014,102.0,103.0,98.0,13.4,1505.4,327.3,-0.7,1.8,2470.307,13.34,0.024,14.0
2019-11-16T07:46:03,42.805,6.029,0.0,0.029,0.009,100.0,104.0,98.0,13.4,1505.4,324.5,-0.7,1.8,2470.304,13.34,0.028,0.0
2019-11-16T07:49:03,42.805,6.029,-0.035,0.014,-0.078,100.0,105.0,97.0,13.4,1505.4,325.9,-0.7,1.8,2470.387,13.34,0.037,291.8
2019-11-16T07:52:02,42.805,6.029,0.017,0.032,0.014,101.0,106.0,98.0,13.4,1505.4,324.5,-0.7,1.8,2470.393,13.34,0.036,28.0
2019-11-16T07:55:03,42.805,6.029,-0.02,0.023,-0.018,101.0,106.0,98.0,13.3,1505.4,326.6,-0.7,1.9,2470.312,13.34,0.03,319.0
2019-11-16T07:58:03,42.805,6.029,-0.05,0.01,-0.083,101.0,105.0,98.0,13.4,1505.4,325.4,-0.7,1.8,2470.339,13.35,0.05,281.3
2019-11-16T08:04:03,42.805,6.029,-0.008,0.026,-0.018,100.0,108.0,98.0,13.4,1505.3,323.7,-0.8,1.8,2470.37,13.33,0.027,342.9
2019-11-16T08:07:02,42.805,6.029,-0.007,0.003,0.0,99.0,108.0,99.0,13.3,1505.3,326.3,-0.7,1.8,2470.337,13.33,0.007,293.2
2019-11-16T08:10:03,42.805,6.029,-0.002,-0.008,-0.043,99.0,106.0,99.0,13.4,1505.4,325.4,-0.7,1.9,2470.367,13.34,0.008,194.0
2019-11-16T08:13:03,42.805,6.029,-0.061,0.007,-0.081,101.0,107.0,97.0,13.4,1505.4,323.3,-0.7,1.8,2470.347,13.34,0.061,276.5
2019-11-16T08:16:03,42.805,6.029,-0.039,0.012,-0.055,101.0,106.0,99.0,13.4,1505.4,324.7,-0.7,1.8,2470.373,13.34,0.04,287.1
2019-11-16T08:19:03,42.805,6.029,-0.009,0.016,-0.015,99.0,107.0,98.0,13.4,1505.4,326.3,-0.7,1.8,2470.338,13.34,0.018,330.6
2019-11-16T08:22:02,42.805,6.029,-0.027,0.01,-0.033,101.0,105.0,99.0,13.4,1505.4,324.9,-0.7,1.8,2470.314,13.35,0.028,290.3
2019-11-16T08:25:03,42.805,6.029,-0.004,0.017,-0.005,101.0,107.0,99.0,13.4,1505.4,325.7,-0.7,1.8,2470.342,13.35,0.017,346.8
2019-11-16T08:28:03,42.805,6.029,0.051,0.027,0.023,105.0,108.0,98.0,13.4,1505.4,328.2,-0.7,1.8,2470.383,13.35,0.057,62.1
2019-11-16T08:31:03,42.805,6.029,0.042,0.031,0.049,101.0,108.0,97.0,13.3,1505.4,327.4,-0.7,1.8,2470.365,13.35,0.052,53.6
2019-11-16T08:34:02,42.805,6.029,0.025,0.021,-0.048,98.0,105.0,99.0,13.3,1505.4,324.5,-0.7,1.8,2470.37,13.35,0.032,50.0
2019-11-16T08:37:02,42.805,6.029,0.027,0.028,0.011,101.0,107.0,99.0,13.4,1505.4,325.7,-0.7,1.8,2470.385,13.35,0.038,44.0
2019-11-16T08:40:03,42.805,6.029,0.039,0.005,0.004,99.0,107.0,99.0,13.4,1505.4,323.0,-0.7,1.8,2470.424,13.35,0.039,82.7
2019-11-16T08:43:03,42.805,6.029,-0.034,0.016,-0.062,98.0,104.0,98.0,13.4,1505.4,328.4,-0.7,1.8,2470.373,13.35,0.037,295.2
2019-11-16T08:46:02,42.805,6.029,0.042,0.016,-0.003,102.0,105.0,97.0,13.4,1505.4,327.2,-0.7,1.8,2470.36,13.35,0.044,69.1
2019-11-16T08:49:03,42.805,6.029,0.041,0.022,0.017,102.0,105.0,98.0,13.4,1505.4,328.8,-0.7,1.9,2470.365,13.34,0.046,61.8
2019-11-16T08:52:03,42.805,6.029,0.016,0.001,-0.01,99.0,105.0,98.0,13.3,1505.4,328.2,-0.7,1.8,2470.347,13.34,0.016,86.4
2019-11-16T08:55:03,42.805,6.029,0.011,0.0,-0.012,99.0,104.0,99.0,13.4,1505.4,327.8,-0.7,1.8,2470.367,13.34,0.011,90.0
2019-11-16T08:58:03,42.805,6.029,0.021,0.023,-0.006,101.0,104.0,99.0,13.4,1505.4,323.8,-0.7,1.8,2470.346,13.34,0.031,42.4
2019-11-16T09:04:02,42.805,6.029,0.01,0.034,0.016,101.0,106.0,98.0,13.3,1505.3,324.8,-0.8,1.8,2470.422,13.32,0.035,16.4
2019-11-16T09:10:02,42.805,6.029,0.014,0.003,0.0,100.0,105.0,98.0,13.3,1505.3,326.9,-0.7,1.9,2470.407,13.31,0.014,77.9
2019-11-16T09:13:03,42.805,6.029,0.03,0.027,0.004,100.0,106.0,98.0,13.3,1505.3,328.7,-0.7,1.8,2470.41,13.32,0.04,48.0
2019-11-16T09:16:03,42.805,6.029,-0.019,0.011,-0.044,102.0,106.0,99.0,13.3,1505.3,324.8,-0.7,1.8,2470.431,13.33,0.021,300.1
2019-11-16T09:19:03,42.805,6.029,0.014,0.018,-0.047,101.0,106.0,98.0,13.3,1505.3,324.5,-0.7,1.8,2470.384,13.33,0.022,37.9
2019-11-16T09:22:03,42.805,6.029,0.008,0.0,0.019,100.0,104.0,98.0,13.3,1505.3,326.9,-0.7,1.8,2470.38,13.33,0.008,90.0
2019-11-16T09:25:03,42.805,6.029,-0.011,0.021,-0.02,100.0,107.0,98.0,13.4,1505.3,324.8,-0.7,1.8,2470.378,13.33,0.023,332.4
2019-11-16T09:28:03,42.805,6.029,0.012,0.01,-0.01,100.0,105.0,98.0,13.4,1505.3,326.2,-0.8,1.8,2470.387,13.33,0.015,50.2
2019-11-16T09:31:03,42.805,6.029,0.008,0.029,0.005,100.0,105.0,98.0,13.3,1505.4,326.6,-0.7,1.8,2470.386,13.34,0.03,15.4
2019-11-16T09:34:03,42.805,6.029,-0.016,0.006,-0.046,100.0,105.0,99.0,13.4,1505.4,325.6,-0.7,1.8,2470.407,13.34,0.017,290.6
2019-11-16T09:37:03,42.805,6.029,0.032,0.028,0.05,100.0,105.0,97.0,13.3,1505.4,324.4,-0.7,1.8,2470.384,13.34,0.042,48.8
2019-11-16T09:40:03,42.805,6.029,0.031,0.003,-0.032,99.0,105.0,98.0,13.4,1505.4,328.0,-0.7,1.8,2470.39,13.34,0.031,84.5
2019-11-16T09:43:03,42.805,6.029,-0.013,0.013,-0.024,100.0,107.0,98.0,13.3,1505.4,324.4,-0.7,1.8,2470.403,13.34,0.018,315.0
2019-11-16T09:46:03,42.805,6.029,-0.008,0.014,-0.008,102.0,107.0,96.0,13.4,1505.4,326.8,-0.7,1.8,2470.389,13.34,0.016,330.3
2019-11-16T09:49:02,42.805,6.029,0.01,0.012,-0.029,101.0,106.0,98.0,13.4,1505.4,324.6,-0.7,1.8,2470.351,13.34,0.015,39.8
2019-11-16T09:52:03,42.805,6.029,0.014,0.035,-0.012,100.0,106.0,98.0,13.4,1505.4,327.0,-0.7,1.8,2470.39,13.34,0.037,21.8
2019-11-16T09:55:03,42.805,6.029,-0.005,0.03,-0.008,101.0,106.0,97.0,13.4,1505.4,328.0,-0.7,1.8,2470.372,13.34,0.03,350.5
2019-11-16T09:58:03,42.805,6.029,-0.001,0.007,0.009,101.0,106.0,97.0,13.3,1505.4,328.7,-0.7,1.9,2470.369,13.34,0.007,351.9
2019-11-16T10:04:03,42.805,6.029,-0.024,0.048,-0.013,100.0,106.0,98.0,13.4,1505.3,324.4,-0.8,1.8,2470.385,13.32,0.053,333.4
2019-11-16T10:07:03,42.805,6.029,-0.01,0.019,-0.006,102.0,106.0,98.0,13.4,1505.3,326.5,-0.7,1.8,2470.36,13.32,0.021,332.2
2019-11-16T10:10:03,42.805,6.029,-0.005,0.021,-0.018,101.0,107.0,97.0,13.4,1505.3,326.8,-0.7,1.8,2470.417,13.33,0.021,346.6
2019-11-16T10:31:02,42.805,6.029,-0.018,0.017,-0.042,102.0,105.0,99.0,13.4,1505.2,326.8,-0.8,1.8,2470.554,13.28,0.024,313.4
2019-11-16T10:34:03,42.805,6.029,0.012,0.032,0.015,100.0,106.0,98.0,13.4,1505.2,325.9,-0.7,1.8,2470.494,13.3,0.034,20.6